sat.trackr.live / text

‹ back to catalog

STARLINK-35104

NORAD 65631 · 2025-210K

PAYLOAD ACTIVE UNKNOWN

§ Identity

Operator
Country
US
Launch date
2025-09-18
Launch site
AFETR
Launch vehicle
Mass (kg)
RCS (m²)

Purposes: comms

External: N2YO · Heavens-Above · Gunter

§ Orbital elements

Epoch: 2026-05-24T23:01:35.373216Z

Period
93.85 min
Inclination
53.1586°
Eccentricity
0.0001065
Mean motion
15.34406095 rev/d
Perigee alt
462.0 km
Apogee alt
463.4 km
Semi-major
6,840.8 km
B*
4.0489e-4
RAAN
311.7298°
Arg perigee
89.3795°
Mean anomaly
270.7329°
Rev number
3,941

§ Raw data

STARLINK-351041 65631U 25210K   26144.95943719  .00013331  00000+0  40489-3 0  99932 65631  53.1586 311.7298 0001065  89.3795 270.7329 15.34406095 39419

JSON: /api/v1/satellites/65631 · /tle

For live sub-satellite position, see the globe view (requires WebGL).

§ Visibility from observer

Set your observer location to see the next 7 days of passes ≥ 10°. The values pass through the URL so the page stays shareable.

No JS? Fill the form by hand. The geolocation button needs JavaScript.